Alturas, CA

12:36 PM PST on December 05, 2019 (GMT -0800)
Alturas Municipal

Weather History for KAAT - October, 2019

Change the Weather History Date:

Thursday, October 3, 2019

  Actual Average Record
Temperature  
Mean Temperature 47 °F 51 °F  
Max Temperature 62 °F 71 °F 90 °F (1917)
Min Temperature 32 °F 31 °F 16 °F (1973)
Degree Days  
Heating Degree Days 18 14  
Month to date heating degree days 64 41  
Since 1 July heating degree days 370 418  
Cooling Degree Days 0 0  
Month to date cooling degree days 0 0  
Year to date cooling degree days 217 156  
Moisture  
Dew Point 31 °F    
Average Humidity 61    
Maximum Humidity 86    
Minimum Humidity 25    
Precipitation  
Precipitation 0.03 in 0.02 in 0.44 in (1951)
Month to date precipitation 0.03 0.05  
Year to date precipitation 12.26 9.71  
Sea Level Pressure  
Sea Level Pressure 29.99 in    
Wind  
Wind Speed 4 mph ()    
Max Wind Speed 21 mph    
Max Gust Speed 28 mph    
Visibility 9.8 miles    
Events Rain    
T = Trace of Precipitation, MM = Missing Value Source: Averaged Metar Reports

Daily Weather History Graph

Daily Weather History Graph

Search for Another Location

Airport or City:

Astronomy

Oct. 03, 2019 Rise Set
Actual Time 7:01 AM PDT 6:40 PM PDT
Civil Twilight 6:33 AM PDT 7:08 PM PDT
Nautical Twilight 6:01 AM PDT 7:40 PM PDT
Astronomical Twilight 5:28 AM PDT 8:12 PM PDT
Moon 12:41 PM PDT (10/3) 10:20 PM PDT (10/3)
Length of Visible Light 12h 35m
Length of Day
11h 39m
Waxing Crescent, 31% of the Moon is Illuminated
Oct 3
Waxing Crescent
Oct 5
First Quarter
Oct 13
Full
Oct 21
Last Quarter
Oct 27
New

Hourly Weather History & Observations

Time (PDT) Temp. Windchill Dew Point Humidity Pressure Visibility Wind Dir Wind Speed Gust Speed Precip Events Conditions
12:55 AM 34.0 °F - 26.1 °F 73% 30.01 in 10.0 mi Calm Calm - N/A   Clear
1:55 AM 32.0 °F - 26.1 °F 79% 30.01 in 10.0 mi Calm Calm - N/A   Partly Cloudy
2:55 AM 35.1 °F - 28.0 °F 76% 29.99 in 10.0 mi Calm Calm - N/A   Mostly Cloudy
3:55 AM 34.0 °F - 28.0 °F 79% 29.98 in 10.0 mi Calm Calm - N/A   Partly Cloudy
4:55 AM 35.1 °F - 30.0 °F 82% 29.98 in 10.0 mi Calm Calm - N/A   Overcast
5:55 AM 35.1 °F - 28.9 °F 78% 29.99 in 10.0 mi Calm Calm - N/A   Overcast
6:55 AM 33.1 °F - 28.9 °F 85% 30.02 in 10.0 mi Calm Calm - N/A   Mostly Cloudy
7:55 AM 35.1 °F - 30.0 °F 82% 30.02 in 9.0 mi Calm Calm - N/A   Mostly Cloudy
8:55 AM 42.1 °F - 30.0 °F 62% 30.01 in 10.0 mi Calm Calm - N/A   Mostly Cloudy
9:55 AM 48.0 °F - 28.9 °F 48% 30.00 in 10.0 mi Calm Calm - N/A   Mostly Cloudy
10:55 AM 54.0 °F - 28.9 °F 38% 29.99 in 10.0 mi WNW 4.6 mph - N/A   Mostly Cloudy
11:55 AM 57.0 °F - 28.0 °F 33% 29.97 in 10.0 mi SW 4.6 mph - N/A   Overcast
12:55 PM 59.0 °F - 28.9 °F 32% 29.95 in 10.0 mi Variable 6.9 mph - N/A   Partly Cloudy
1:55 PM 57.9 °F - 30.0 °F 35% 29.94 in 10.0 mi West 6.9 mph - N/A   Mostly Cloudy
2:55 PM 59.0 °F - 32.0 °F 36% 29.92 in 10.0 mi West 13.8 mph - N/A   Scattered Clouds
3:55 PM 59.0 °F - 27.0 °F 29% 29.91 in 10.0 mi West 11.5 mph - N/A   Partly Cloudy
4:55 PM 59.0 °F - 27.0 °F 29% 29.91 in 10.0 mi West 13.8 mph - N/A   Clear
5:55 PM 57.0 °F - 23.0 °F 27% 29.92 in 10.0 mi WSW 11.5 mph 21.9 mph N/A   Clear
6:35 PM 51.1 °F - 34.0 °F 52% 29.96 in 10.0 mi NW 17.3 mph 21.9 mph N/A   Clear
6:55 PM 48.9 °F - 34.0 °F 56% 29.97 in 10.0 mi NW 20.7 mph 27.6 mph N/A   Clear
7:55 PM 45.0 °F 38.5 °F 35.1 °F 68% 29.99 in 10.0 mi NW 13.8 mph - N/A   Clear
8:55 PM 43.0 °F 38.2 °F 34.0 °F 71% 30.03 in 10.0 mi West 8.1 mph - N/A   Scattered Clouds
9:04 PM 44.1 °F 38.6 °F 34.0 °F 68% 30.03 in 10.0 mi NW 10.4 mph - N/A   Mostly Cloudy
9:13 PM 44.1 °F 42.5 °F 35.1 °F 71% 30.03 in 10.0 mi NNW 3.5 mph - N/A   Overcast
9:40 PM 44.1 °F 39.0 °F 35.1 °F 71% 30.04 in 10.0 mi NW 9.2 mph - N/A   Overcast
9:55 PM 44.1 °F 40.8 °F 35.1 °F 71% 30.02 in 10.0 mi NW 5.8 mph - N/A   Overcast
10:55 PM 42.1 °F 38.4 °F 35.1 °F 76% 30.03 in 10.0 mi NNE 5.8 mph - 0.00 in Rain Light Rain
11:30 PM 39.9 °F 35.8 °F 36.0 °F 86% 30.07 in 5.0 mi NNE 5.8 mph - 0.01 in Rain Light Rain
11:55 PM 39.9 °F - 36.0 °F 86% 30.03 in 10.0 mi Calm Calm - 0.01 in   Overcast